{"data":{"norad_id":45367,"epoch":"2026-09-20T01:20:56.405760Z","epoch_age_seconds":52561,"freshness":"FRESH","line1":"1 45367U 20019H   26263.05620840  .00037471  00000+0  32105-3 0  9996","line2":"2 45367  53.0381 290.9930 0002912  37.9946 322.1275 15.69067948360197","mean_motion":15.69067948,"eccentricity":0.0002912,"inclination_deg":53.0381,"raan_deg":290.993,"arg_perigee_deg":37.9946,"mean_anomaly_deg":322.1275,"bstar":0.00032105,"rev_number":36019,"period_min":91.774228250312,"perigee_km":359.60208283185,"apogee_km":363.52728509258,"semimajor_km":6739.7016839622,"source":"CELESTRAK","updated_at":"2026-09-20T09:00:38.230009Z"}}